Overview Statistics Trail Chart Weather Telemetry Raw packets
 

This is the latest recevied weather packets stored in our database for station/object KD7AWQ. If no packets are shown the sender has not sent any weather packets the latest 10 day(s).

<< 17 18 19 20 21 22 23 >>
Time Temp. Humidity Pressure Rain* Wind** Luminosity Snow
1788327292 26.11° C 37% 1188.9 hPa 0 mm - 0 W/m² -
1788326992 26.11° C 37% 1188.9 hPa 0 mm - 0 W/m² -
1788326686 26.11° C 37% 1189 hPa 0 mm - 0 W/m² -
1788326382 26.11° C 37% 1189 hPa 0 mm - 0 W/m² -
1788326076 25.56° C 38% 1188.9 hPa 0 mm - 0 W/m² -
1788325776 25.56° C 38% 1188.8 hPa 0 mm - 0 W/m² -
1788325475 25.56° C 40% 1189 hPa 0 mm - 0 W/m² -
1788325170 24.44° C 44% 1188.9 hPa 0 mm - 0 W/m² -
1788324866 24.44° C 48% 1188.9 hPa 0 mm - 0 W/m² -
1788324562 23.89° C 48% 1189.2 hPa 0 mm - 0 W/m² -
1788324257 24.44° C 50% 1188.8 hPa 0 mm - 0 W/m² -
1788323953 25.56° C 44% 1189.1 hPa 0 mm - 0 W/m² -
1788323648 26.11° C 41% 1189 hPa 0 mm - 0 W/m² -
1788323343 25.56° C 38% 1188.7 hPa 0 mm - 0 W/m² -
1788323042 25.56° C 38% 1188.9 hPa 0 mm - 0 W/m² -
1788322738 26.11° C 38% 1189 hPa 0 mm - 0 W/m² -
1788322437 26.11° C 37% 1188.9 hPa 0 mm - 0 W/m² -
1788322136 26.67° C 37% 1188.4 hPa 0 mm - 0 W/m² -
1788321832 26.67° C 36% 1188.7 hPa 0 mm - 0 W/m² -
1788321531 26.67° C 37% 1188.3 hPa 0 mm - 0 W/m² -
1788321226 26.11° C 37% 1188.6 hPa 0 mm - 0 W/m² -
1788320925 26.11° C 38% 1188.2 hPa 0 mm - 0 W/m² -
1788320620 25.56° C 39% 1188.4 hPa 0 mm - 0 W/m² -
1788320318 26.11° C 40% 1188.1 hPa 0 mm - 0 W/m² -
1788320013 26.11° C 43% 1188.3 hPa 0 mm - 0 W/m² -

* Rain latest hour (hover to see other rain measurements)
** Current wind speed in m/s (hover to see current wind gust speed)